OpenBCM V1.08-5-g2f4a (Linux)

Packet Radio Mailbox

IZ3LSV

[San Dona' di P. JN]

 Login: GUEST





  
I0OJJ  > KEPS     28.07.25 01:40l 343 Lines 16342 Bytes #79 (0) @ AMSAT
BID : ORB25209.1
Read: GUEST
Subj: 2Line Orbital Elements 25209.AMSAT
Path: IZ3LSV<IK6IHL<IK7NXU<HB9ON<HB9ON<PI8ZTM<VK2IO<VK2RZ<LU9DCE<VE3TOK<
      IR0AAB<I0OJJ
Sent: 250728/0025z @:I0OJJ.ITA.EU [Rome] obcm1.08-10-g596e
From: I0OJJ @ I0OJJ.ITA.EU (Gustavo)
To:   KEPS @ AMSAT
X-Info: This message was generated automatically


QST de W1STR

AMSAT Orbital Elements for Amateur Satellites in TLE Format
From Orbital Analysis Office
New England Sci-Tech STEM Education Center
Natick, MA July 28, 2025
To all radio amateurs


These element sets describe the orbits of various satellites 
in use by the amateur radio community. For details see:
www.amsat.org/keplerian-elements-formats/

A daily update of element sets is available at:
www.amsat.org/tle/daily-bulletin.txt
or without bulletin text:
www.amsat.org/tle/dailytle.txt


AO-07
1 07530U 74089B   25208.85749168 -.00000042  00000-0  28181-4 0  9999
2 07530 101.9945 213.6370 0012460  31.7418  90.5840 12.53690410320119
UO-11
1 14781U 84021B   25208.50082957  .00001337  00000-0  14612-3 0  9990
2 14781  97.7576 173.9333 0007976 166.8834 193.2593 14.89498984208778
AO-27
1 22825U 93061C   25208.60962863  .00000112  00000-0  60050-4 0  9994
2 22825  98.7340 270.3982 0007878 339.6160  20.4707 14.30812383660589
FO-29
1 24278U 96046B   25208.66208974 -.00000036  00000-0  61968-6 0  9993
2 24278  98.5689  96.2174 0349310 217.8989 139.7093 13.53250816429521
NOAA-15
1 25338U 98030A   25208.84192756  .00000196  00000-0  98352-4 0  9997
2 25338  98.5338 232.8079 0009582 212.1951 147.8646 14.27002801415286
GO-32
1 25397U 98043D   25208.88225035  .00000072  00000-0  51181-4 0  9999
2 25397  98.9735 189.0175 0002359  78.7273 281.4169 14.24324967405386
ISS
1 25544U 98067A   25208.81046245  .00013125  00000-0  23629-3 0  9994
2 25544  51.6345 105.7265 0001992 123.7631 236.3548 15.50154127521466
NO-44
1 26931U 01043C   25208.84623995  .00000160  00000-0  91034-4 0  9990
2 26931  67.0522   3.0433 0006414 276.7047  83.3325 14.31753940244175
SO-50
1 27607U 02058C   25208.27123564  .00000990  00000-0  14004-3 0  9994
2 27607  64.5528  53.3087 0061441 323.7332  35.9615 14.81738244216290
CO-55
1 27844U 03031E   25208.52953094  .00000324  00000-0  15998-3 0  9990
2 27844  98.6765 216.1854 0010631  53.0698 307.1453 14.24026968145462
CO-57
1 27848U 03031J   25208.50041093  .00000265  00000-0  13624-3 0  9997
2 27848  98.6792 216.1260 0010690  68.8491 291.3829 14.23357424145180
RS-22
1 27939U 03042A   25208.86608160  .00001132  00000-0  18685-3 0  9999
2 27939  98.3321  19.4963 0010722 211.6992 284.8971 14.72446615167937
CO-58
1 28895U 05043F   25208.87906421  .00001738  00000-0  29024-3 0  9997
2 28895  98.2560 353.8519 0015178 149.9220 210.2861 14.71146637 54275
CO-65
1 32785U 08021C   25208.55435057  .00004996  00000-0  35788-3 0  9999
2 32785  97.7871 180.0933 0010985  56.4576 303.7697 15.04810692936296
CO-66
1 32791U 08021J   25208.52314494  .00012038  00000-0  56716-3 0  9994
2 32791  97.7300 189.6721 0004071  35.4755 324.6749 15.19664379937774
RS-30
1 32953U 08025A   25208.85031273  .00000001  00000-0 -60686-4 0  9995
2 32953  82.5019 197.1593 0018149 302.9478  56.9856 12.43166595779532
NOAA-19
1 33591U 09005A   25208.83751247  .00000187  00000-0  12338-3 0  9995
2 33591  98.9950 273.8074 0013078 224.1139 135.8991 14.13394950848921
SRMSAT
1 37841U 11058D   25208.40180287  .00000382  00000-0  63373-4 0  9994
2 37841  19.9705 225.1586 0011579 230.3364 264.1832 14.11447310711875
ZACUBE-1
1 39417U 13066B   25208.44980604  .00003359  00000-0  29187-3 0  9992
2 39417  97.7834 165.2289 0041951 251.5600 108.1059 14.97030214632079
Delfi-N3xt
1 39428U 13066N   25208.75565133  .00004406  00000-0  44649-3 0  9998
2 39428  97.8317 125.8804 0083323 200.8095 158.9723 14.88857906626425
GOMX-1
1 39430U 13066Q   25208.88991829  .00001981  00000-0  31141-3 0  9998
2 39430  97.6789  64.5808 0133203  38.3408 322.7175 14.67806151622495
LO-74
1 39440U 13066AA  25208.82582326  .00004185  00000-0  42182-3 0  9997
2 39440  97.8507 153.0637 0062323  22.3164 338.0744 14.90237488629829
AO-73
1 39444U 13066AE  25208.42702966  .00005693  00000-0  42188-3 0  9992
2 39444  97.7867 170.5478 0040288 222.1734 137.6389 15.02869977630779
DTUSAT-2
1 40030U 14033W   25208.91202654  .00006417  00000-0  41232-3 0  9997
2 40030  98.0585 183.0944 0007239 252.3540 107.6897 15.08792752604199
EO-80
1 40032U 14033Y   25208.86347449  .00007094  00000-0  45429-3 0  9999
2 40032  98.0468 182.6312 0008281 185.1462 174.9681 15.08865967604174
LILACSAT-2
1 40908U 15049K   25208.84193716  .00011186  00000-0  28329-3 0  9990
2 40908  97.5042 230.3810 0008382 359.7486   0.3754 15.39875540545651
IO-86
1 40931U 15052B   25151.18580175  .00001241  00000-0  78118-4 0  9996
2 40931   6.0006  24.0987 0012733 338.8432  21.1169 14.78805930523047
Horyu-4
1 41340U 16012D   25208.24920684  .00021472  00000-0  54068-3 0  9996
2 41340  30.9959 170.9429 0007124 204.1853 155.8459 15.38640442520133
Lapan A3
1 41603U 16040E   25208.89812605  .00003646  00000-0  12722-3 0  9997
2 41603  97.1379 211.6199 0012904  96.5641 263.7070 15.30140224505173
CAS-2T
1 41847U 16066G   25208.23179658  .00001150  00000-0  17137-3 0  9990
2 41847  98.4184 282.2737 0346267  34.5178 327.7977 14.43616078457892
CAS-4B
1 42759U 17034B   25208.86670627  .00090268  00000-0  72221-3 0  9993
2 42759  43.0055  32.7897 0022955 270.9181  88.9056 15.69718021450176
CAS-4A
1 42761U 17034D   25208.85400434  .00102138  00000-0  75564-3 0  9995
2 42761  43.0093  29.4005 0024026 275.3337  84.4790 15.71494593450206
TechnoSat
1 42829U 17042E   25208.74925993  .00004321  00000-0  33338-3 0  9997
2 42829  97.3912  15.1487 0017472 115.7621 244.5410 15.01961054437958
AO-91
1 43017U 17073E   25208.59461831  .00009674  00000-0  48792-3 0  9996
2 43017  97.5174  78.1537 0170638   3.4748 356.7620 15.05457058416439
S-Net D
1 43186U 18014G   25208.80946110  .00005462  00000-0  31969-3 0  9990
2 43186  97.5571 111.2242 0010563  64.7593 295.4731 15.12205655409668
S-Net B
1 43187U 18014H   25208.61698256  .00005545  00000-0  32464-3 0  9998
2 43187  97.5577 111.0079 0011162  60.7460 299.4885 15.12182968409638
S-Net A
1 43188U 18014J   25208.80968517  .00005568  00000-0  32570-3 0  9993
2 43188  97.5583 111.3549 0011078  61.0158 299.2181 15.12211228409667
S-Net C
1 43189U 18014K   25208.28865230  .00005067  00000-0  29696-3 0  9993
2 43189  97.5599 110.8616 0012466  55.2095 305.0307 15.12174978408138
Ten-Koh
1 43677U 18084G   25208.47093143  .00002273  00000-0  18421-3 0  9999
2 43677  98.0843  22.6211 0009079 104.1966 256.0265 15.00755413367426
PO-101
1 43678U 18084H   25208.80243377  .00001442  00000-0  12582-3 0  9992
2 43678  98.1067  26.7786 0008921 119.2592 240.9522 14.98513553367606
QO-100
1 43700U 18090A   25208.84140885  .00000137  00000-0  00000+0 0  9997
2 43700   0.0176  70.5727 0001026  54.5859 149.2686  1.00271322 24665
MinXSS-2
1 43758U 18099A   25208.45003885  .00015156  00000-0  57370-3 0  9997
2 43758  97.4989 274.6746 0010717 354.5587   5.5534 15.26974468364270
AO-95
1 43770U 18099N   25208.71618846  .00009454  00000-0  46793-3 0  9990
2 43770  97.4880 266.2840 0011393  51.9411 308.2849 15.17955253363857
RANGE-A
1 43773U 18099R   25208.60123744  .00004769  00000-0  30130-3 0  9991
2 43773  97.4450 255.6133 0011924  34.9078 325.2931 15.09456719363462
MOVE-II
1 43780U 18099Y   25194.80194206  .15913345  26116-5  37118-3 0  9995
2 43780  97.4526 273.8800 0018736 270.1080  89.8075 16.44566529363241
SNUSat 2
1 43782U 18099AA  25208.69295817  .00007416  00000-0  39780-3 0  9993
2 43782  97.4563 262.6164 0011352 355.1594   4.9526 15.15193014363784
SnugLite
1 43784U 18099AC  25208.86756059  .00008645  00000-0  42468-3 0  9996
2 43784  97.4374 262.4496 0003161  17.7514 342.3830 15.18294025363968
ITASat 1
1 43786U 18099AE  25208.68705912  .00006666  00000-0  37557-3 0  9994
2 43786  97.4532 261.9762 0015114  45.7880 314.4590 15.13437168363734
EAGLET 1
1 43790U 18099AJ  25208.61890908  .00004390  00000-0  27817-3 0  9992
2 43790  97.4732 261.7038 0012617  32.0446 328.1547 15.09391661363317
ESEO
1 43792U 18099AL  25208.87884574  .00002486  00000-0  19004-3 0  9997
2 43792  97.4437 254.5652 0012279   1.3291 358.7965 15.02757210363079
CSIM
1 43793U 18099AM  25208.76458770  .00676189  19984-3  15890-2 0  9990
2 43793  97.4688 290.9116 0006770 273.3815  86.6687 15.96874555365265
JO-97
1 43803U 18099AX  25208.86414658  .00010858  00000-0  48169-3 0  9997
2 43803  97.4626 267.5302 0006451 347.6566  12.4511 15.21740336364113
Suomi 100
1 43804U 18099AY  25208.43149440  .00009254  00000-0  44281-3 0  9994
2 43804  97.4695 266.2567 0011391 348.6328  11.4648 15.19136584363968
ISAT
1 43879U 18111D   25208.74056701  .00020407  00000-0  67226-3 0  9999
2 43879  97.5913 124.2414 0009452  42.2127 317.9840 15.31466380359043
UWE-4
1 43880U 18111E   25208.72176501  .00015796  00000-0  59556-3 0  9992
2 43880  97.5861 122.3518 0013005  49.5155 310.7214 15.27072090358974
Sparrow
1 43881U 18111F   25208.74756785  .00021507  00000-0  67960-3 0  9998
2 43881  97.6065 127.3189 0008791  76.9805 283.2418 15.32799215359166
Prox-1
1 44339U 19036A   25208.40978457  .00010921  00000-0  13521-2 0  9990
2 44339  23.9967 107.4244 0007377 256.9978 102.9696 14.80745173325118
SONATE
1 44400U 19038Q   25185.47540524  .09032085  27445-5  31847-3 0  9995
2 44400  97.6609 216.4776 0012462 246.7970 113.2018 16.43248376333575
Taurus 1
1 44530U 19059C   25208.84246944  .00006367  00000-0  11625-2 0  9997
2 44530  98.6122 350.5529 0008484 239.7477 120.2886 14.66301549311010
Duchifat 3
1 44854U 19089C   25208.85813120  .00054917  00000-0  93524-3 0  9999
2 44854  36.9422  47.3928 0006481 338.1204  21.9276 15.50329560310430
TO-108
1 44881U 19093C   25208.85158724  .00000986  00000-0  11965-3 0  9992
2 44881  97.7908 283.4899 0015179  75.1257 285.1638 14.85682123303245
